Temp_Advection
nan nan nan nan nan nan nan nan nan nan nan nan nan nan nan nan nan nan nan nan nan nan nan nan nan nan nan nan nan nan nan nan nan nan nan nan nan nan nan nan nan nan nan nan nan nan nan nan nan nan nan nan nan nan nan nan nan nan nan nan nan nan nan nan nan nan nan nan nan
nan 1 1 1 -0 -0 0 -0 -0 0 0 0 -0 -0 -0 -1 -1 -2 -2 -2 -1 -1 -1 -1 -0 0 1 2 2 1 -0 -1 -1 -1 -1 -0 0 1 1 1 1 1 1 1 1 1 1 1 1 1 1 1 0 0 0 0 0 0 0 -0 -0 -0 -0 -0 -0 0 0 0 nan
nan -1 0 -0 -0 -0 -0 -0 0 0 0 -0 0 -0 -1 -0 -1 -2 -2 -2 -1 -1 -0 -0 0 1 2 1 1 0 -1 -1 -1 -1 -0 0 1 1 1 1 1 1 1 1 1 1 1 1 1 1 0 0 0 -0 -0 0 0 0 -0 0 -0 -0 -0 -0 0 0 0 0 nan
nan -2 -1 -0 -0 -0 -0 -0 -0 0 -0 -1 -0 -0 -0 -1 -1 -2 -2 -1 -1 -0 0 0 1 2 2 1 -0 -1 -1 -1 -1 -0 0 1 1 1 1 1 1 1 1 1 1 1 1 1 1 0 0 -0 -0 -0 -0 -0 -0 -0 -0 -0 -0 -0 -0 0 0 0 0 0 nan
nan -2 -0 -0 -0 -0 -0 -0 -0 0 0 -1 -1 -1 -1 -1 -2 -2 -1 -1 -0 -0 0 1 1 1 1 -0 -1 -1 -0 0 0 1 1 1 1 1 1 1 1 1 1 1 1 1 1 0 0 0 0 -0 -0 -0 0 0 -0 -0 -0 -0 -0 -0 0 0 0 0 0 0 nan
nan -1 0 -1 -0 -0 -0 0 0 0 0 -0 -1 -1 -1 -1 -2 -1 -1 -1 -1 -0 0 1 1 1 0 -1 -1 -0 0 1 1 1 1 1 1 1 1 1 1 1 1 1 1 1 0 -0 -0 -0 0 0 0 0 0 0 0 -0 -0 -0 -0 -0 0 0 0 0 0 0 nan
nan -0 0 -0 -0 -0 0 0 0 -0 -0 -0 -0 -1 -1 -1 -0 -0 -1 -1 -1 0 1 1 0 -0 -1 -1 -0 0 1 1 1 1 1 1 1 1 1 1 1 1 0 0 0 0 -0 -0 -0 -0 -0 0 0 0 0 0 0 -0 -0 -0 -0 -0 0 0 0 0 0 0 nan
nan -0 -0 0 -0 -0 -0 -0 -0 -1 -1 -0 0 -0 -1 -0 -0 -0 -1 -1 0 1 1 1 -1 -1 -1 -1 0 0 1 1 1 1 1 1 1 1 1 1 1 0 0 0 0 -0 -1 -1 -0 -0 -0 -0 0 0 0 -0 -0 -0 -0 -0 -0 0 0 0 0 0 0 -0 nan
nan -0 -0 0 0 -0 -0 -0 -0 -1 -1 -0 -0 -0 -1 -1 -1 -1 -1 0 2 2 1 -1 -1 -1 -0 0 1 1 1 1 1 1 1 1 1 1 1 1 0 0 0 0 -0 -1 -1 -0 -0 0 -0 -0 -0 -0 -0 -0 -0 -0 -0 0 0 0 0 0 0 -0 -0 -0 nan
nan -0 -0 0 0 -0 -0 -0 -0 -0 -0 -0 -1 -1 -1 -2 -2 -1 1 2 3 2 -0 -1 -1 0 1 1 1 1 1 1 1 0 0 1 1 1 0 0 0 0 -0 -1 -1 -1 -1 0 0 0 0 0 0 -0 -0 -0 -0 0 0 0 0 0 0 0 -0 -0 -0 0 nan
nan -0 0 0 -0 -0 -0 -0 -0 0 -0 -0 -1 -1 -2 -2 -1 1 2 3 1 -1 -1 0 1 1 1 2 2 1 1 1 0 1 1 1 0 0 0 0 -0 -0 -1 -1 -1 -0 0 0 0 0 0 0 0 0 0 0 0 0 0 0 0 0 0 0 0 0 0 0 nan
nan 0 0 0 -0 -0 -0 -0 -0 0 0 -0 -1 -1 -1 -1 1 2 2 0 -1 -1 1 2 3 3 2 2 2 1 1 1 0 1 1 0 0 0 0 -0 -0 -1 -1 -1 -0 -0 0 0 0 0 0 0 0 0 0 0 0 0 0 0 0 0 0 0 0 0 0 0 nan
nan 0 0 0 -0 -0 -0 -0 0 0 0 0 0 0 1 3 3 2 0 -1 -1 1 2 3 3 3 3 2 1 1 0 0 1 1 1 0 -0 -0 -0 -0 -1 -1 -1 -0 0 0 0 0 0 0 0 0 0 0 0 0 0 0 0 0 0 0 0 0 0 0 0 0 nan
nan 0 0 0 -0 -0 0 -0 0 1 1 1 1 2 3 4 3 1 -1 -0 1 2 2 2 3 3 2 1 1 0 0 0 1 1 0 -0 -0 -0 -1 -1 -1 -0 -0 0 0 0 0 0 0 0 0 0 0 0 0 0 0 0 0 0 0 0 0 0 0 0 0 0 nan
nan 0 0 0 0 0 0 -0 0 1 1 1 2 3 3 2 0 -0 0 1 2 2 2 2 2 2 2 1 0 0 0 1 1 0 -0 -0 -0 -1 -1 -1 -1 -0 -0 -0 -0 0 0 0 0 0 0 0 0 0 0 0 0 0 0 0 0 0 0 0 0 0 0 0 nan
nan 0 0 0 0 0 -0 -0 -0 0 1 2 2 2 1 -1 -1 -0 1 1 2 2 2 1 1 0 0 0 0 1 1 1 0 -0 -1 -1 -1 -1 -1 -1 -1 -0 -0 -0 -0 0 0 0 0 0 0 0 0 0 0 0 0 0 0 0 0 0 0 0 0 0 0 0 nan
nan 0 0 0 -0 -0 -0 -0 -0 -0 0 1 0 -1 -2 -2 -1 0 1 1 1 1 1 0 -0 -1 -1 -0 1 1 1 1 0 -1 -1 -1 -1 -1 -1 -1 -1 -0 -0 -0 -0 -0 -0 0 0 0 0 0 0 0 0 0 0 0 0 0 0 0 0 0 0 0 -0 -0 nan
nan 0 0 0 0 -0 -1 -1 -1 -1 -1 -1 -2 -2 -2 -1 -0 1 1 1 1 -0 -1 -1 -1 -1 -1 -1 0 0 0 -0 -1 -1 -1 -1 -1 -1 -1 -1 -0 -0 -0 -0 -0 -0 -0 -0 0 0 0 0 0 0 0 0 0 0 0 0 0 0 0 0 0 -0 -0 -0 nan
nan 0 0 0 0 0 -0 -0 -1 -1 -1 -2 -2 -2 -1 0 1 1 1 2 1 -1 -2 -2 -1 -1 -1 -1 -1 -1 -1 -1 -1 -1 -1 -1 -1 -1 -0 -0 -0 -0 -0 -0 -0 0 -0 0 0 0 -0 -0 -0 0 0 0 0 0 0 0 0 0 0 -0 -0 -0 -0 0 nan
nan -0 -0 -0 0 0 0 0 -0 -1 -1 -2 -1 -1 0 1 2 1 1 0 -0 -1 -2 -2 -2 -1 -1 -1 -1 -1 -1 -1 -1 -1 -1 -1 -0 -0 -0 -0 -0 -0 -0 0 0 0 0 0 -0 0 0 -0 -0 0 -0 -0 -0 0 0 0 -0 -0 -0 -0 -0 -0 0 0 nan
nan -0 -0 -0 -0 0 0 0 -0 -0 -1 -0 0 0 1 1 1 1 -0 -1 -1 -1 -1 -1 -1 -2 -1 -1 -1 -1 -1 -1 -1 -1 -1 -0 -0 -0 -0 -0 -0 0 0 0 0 0 -0 -0 -0 -0 0 0 0 0 0 -0 -0 -0 -0 -0 -0 -0 -0 -0 -0 0 0 0 nan
nan -0 -0 -0 -0 0 0 0 0 0 0 0 1 1 0 0 -0 -0 -1 -1 -1 -0 -0 -0 -0 -1 -1 -1 -1 -1 -1 -1 -1 -1 -0 -0 -0 -0 0 0 0 0 0 0 0 -0 -0 -0 -0 0 0 0 0 0 0 -0 -0 -0 -0 -0 -0 -0 -0 0 0 0 0 0 nan
nan 1 1 1 1 0 0 0 0 0 0 0 0 0 -0 -1 -1 -1 -0 0 0 0 0 0 0 0 0 -0 -0 -1 -1 -2 -1 -1 -0 -0 -0 0 0 0 0 0 0 -0 -0 -0 -0 -0 0 0 0 0 0 -0 -0 -0 -0 -0 -0 -0 -0 -0 0 0 0 0 0 0 nan
nan 1 1 1 1 1 0 0 0 0 0 0 -0 -0 -0 -1 -1 -0 0 0 1 0 0 0 0 0 0 0 -0 -1 -1 -2 -2 -1 -1 -0 0 0 0 0 0 0 0 -0 -0 0 0 0 0 0 0 0 -0 -0 -0 -0 -0 -0 0 0 0 0 0 0 0 0 0 0 nan
nan 1 1 1 1 1 0 0 -0 -0 -0 -0 0 0 0 0 0 0 1 0 1 0 0 0 0 0 0 -0 -0 -0 -0 -1 -1 -1 -1 -0 0 0 0 0 0 0 0 0 0 0 0 0 0 0 0 -0 -0 -0 -0 -0 0 0 0 0 0 0 0 0 0 0 0 0 nan
nan 0 0 0 0 1 0 0 0 -0 -0 -0 0 1 1 1 1 1 0 0 0 0 0 -0 -0 -0 -0 -0 -0 -0 0 0 0 0 0 -0 0 0 0 -0 -0 -0 0 0 0 0 0 0 0 0 -0 -0 -0 0 0 0 0 0 0 0 0 0 0 0 0 0 0 0 nan
nan -0 -0 -0 -0 0 1 0 0 0 0 1 1 1 1 1 1 0 -0 -0 -0 -0 -0 -0 -0 -0 -0 -0 0 0 0 1 1 1 1 0 0 0 -0 -0 -0 0 0 0 0 0 0 0 0 0 -0 0 0 0 1 0 0 0 0 0 0 0 0 0 0 0 0 0 nan
nan -0 -0 -0 -0 -0 0 0 0 1 1 1 1 1 1 0 -0 -0 -1 -1 -1 -1 -1 -0 -0 -0 -0 -0 0 0 0 1 1 1 1 1 0 0 -0 0 0 0 0 0 0 0 0 0 -0 -0 0 0 0 0 0 0 0 0 0 0 0 0 -0 -0 0 0 0 0 nan
nan -0 -1 -1 -0 -0 0 1 1 1 1 2 1 0 -0 -0 -1 -1 -1 -1 -1 -1 -1 -1 -1 -0 -0 -0 0 0 1 0 0 0 0 0 0 0 0 0 0 0 0 0 0 0 -0 -0 -0 -0 0 0 0 0 0 0 0 0 0 0 -0 -0 -0 -0 0 0 0 -0 nan
nan -0 0 0 0 1 1 1 1 1 1 1 1 0 -0 -1 -0 -0 -0 -1 -0 -0 -0 -1 -1 -1 -0 -0 -0 0 0 0 0 0 0 -0 -0 -0 0 -0 -0 -0 -0 -0 -0 -0 -0 -0 -0 -0 0 0 0 0 0 0 -0 -0 -0 -0 -0 -0 -0 0 0 0 -0 0 nan
nan 1 1 1 1 2 2 2 2 2 1 0 0 -0 -0 -0 -0 -0 -0 -0 -0 0 0 -0 -0 -0 -0 -0 -0 -0 0 0 0 -0 -0 -0 -0 -0 -0 -0 -0 -0 -0 -0 -0 -0 -0 -0 -0 0 0 0 0 -0 -0 -0 -0 -0 -0 -0 -0 -0 0 0 0 0 0 0 nan
nan 1 1 1 1 1 2 2 2 1 1 0 0 -0 -0 -0 -0 0 0 0 0 0 0 0 -0 -0 -0 -0 -0 -0 0 -0 -0 -0 -0 -0 -0 -0 -0 -0 -0 -0 -0 -0 -0 -0 -0 -0 0 0 0 -0 -0 -1 -1 -1 -1 -0 -0 -0 -0 0 0 0 0 0 0 0 nan
nan 1 1 1 0 1 1 1 1 1 1 1 0 0 -0 -0 0 0 0 1 0 0 0 -0 -0 -0 -0 -0 -0 -0 -0 -0 -0 -0 -0 -0 -0 -0 -0 -0 -0 -0 -0 -0 -0 -0 0 0 0 -0 -0 -0 -0 -0 -0 -0 -0 -0 -0 -0 0 0 0 0 0 0 0 -0 nan
nan 0 0 -0 -0 -0 -0 0 1 1 1 1 1 0 0 0 0 0 0 0 0 0 0 -0 0 -0 -0 -0 -0 -0 -0 -0 -0 -0 -0 -0 -0 0 0 0 -0 -0 -0 -0 0 0 0 0 -0 -0 -0 -0 -0 0 0 0 0 0 0 0 0 0 0 0 0 -0 -0 -0 nan
nan -0 -1 -1 -1 -1 -1 -1 -0 0 0 -0 0 0 0 0 -0 -0 -0 -0 -0 -0 -0 0 0 0 0 0 0 -0 -0 -0 -0 -0 -0 0 0 0 0 0 0 0 0 0 0 0 0 -0 -0 -0 0 0 0 0 0 0 0 0 0 0 0 0 0 0 -0 -0 -0 -0 nan
nan -0 -1 -1 -1 -1 -1 -1 -1 -0 -0 -0 -1 -1 -0 -0 -0 -0 -0 -0 -0 -0 -0 0 0 0 0 -0 -0 -0 -0 -0 -0 -0 0 0 0 0 0 0 0 0 0 0 0 0 -0 -0 -0 0 0 0 0 0 0 0 0 0 0 0 0 0 0 0 0 -0 -0 -0 nan
nan 1 0 -0 -0 -1 -1 -1 -1 -1 -0 -0 -0 -1 -1 -0 -0 -0 0 0 -0 -0 0 0 0 0 -0 -0 -0 -0 -0 0 0 0 0 0 0 0 0 0 0 0 0 0 -0 -0 -0 -0 0 0 0 0 -0 -0 -0 -0 -0 0 0 0 0 0 0 0 0 -0 -0 -0 nan
nan 1 1 0 0 0 -0 -0 -0 -0 -0 0 0 0 -0 -0 0 0 0 0 0 -0 -0 0 -0 -0 -0 -0 -0 -0 0 0 0 0 0 0 0 0 0 0 0 -0 -0 -0 -0 -0 -0 -0 0 -0 -0 -0 -0 -0 -0 -0 -0 0 0 0 0 0 0 0 0 -0 -0 -0 nan
nan 1 0 0 0 0 0 0 0 1 1 0 0 1 1 0 0 0 0 0 0 0 -0 -0 -0 -0 -0 -0 0 0 0 0 0 0 0 0 0 0 0 0 0 -0 -0 -0 -0 -0 -0 -0 -0 -0 -0 -0 -0 0 0 0 0 0 0 0 0 0 -0 -0 -0 -0 -0 -0 nan
nan 0 0 0 0 0 0 0 1 1 1 1 0 1 1 1 0 0 0 0 0 0 0 -0 -0 -0 0 0 0 0 0 0 0 0 0 0 0 0 0 -0 -0 -0 -0 -0 -0 -0 -0 -0 -0 -0 -0 -0 0 0 0 0 0 0 1 0 0 0 -0 -0 -0 -0 -0 0 nan
nan nan nan nan nan nan nan nan nan nan nan nan nan nan nan nan nan nan nan nan nan nan nan nan nan nan nan nan nan nan nan nan nan nan nan nan nan nan nan nan nan nan nan nan nan nan nan nan nan nan nan nan nan nan nan nan nan nan nan nan nan nan nan nan nan nan nan nan nan
Wind_Speed
46 52 51 43 30 29 37 44 45 45 46 47 48 49 50 52 52 51 52 52 51 50 49 48 47 44 41 39 37 35 34 33 33 33 33 33 32 31 31 30 30 31 32 32 31 30 29 28 27 27 27 26 25 24 23 23 22 21 20 19 18 16 15 15 14 14 14 14 14
46 51 50 40 29 32 41 45 47 47 47 48 49 50 50 52 52 51 51 51 51 50 49 48 46 43 40 38 36 34 33 32 32 32 32 31 31 30 30 30 31 32 32 32 31 30 29 28 27 27 27 27 26 25 24 23 22 21 20 19 18 17 16 15 15 14 14 14 13
46 50 46 34 30 36 44 47 48 48 48 48 49 50 51 51 51 51 51 51 50 49 48 47 44 41 39 37 34 33 32 32 31 31 31 30 30 29 30 31 32 32 32 31 31 30 29 28 28 28 28 28 27 26 25 24 22 21 20 19 18 17 17 16 15 14 14 13 12
46 48 41 30 31 39 45 48 49 48 48 49 50 50 50 51 51 50 50 50 50 48 47 45 42 40 37 35 34 32 31 31 31 30 30 30 30 30 31 32 33 33 32 31 30 29 29 29 29 29 29 28 28 27 26 24 23 21 20 19 18 18 17 16 15 14 13 12 12
46 44 35 28 34 41 45 46 46 47 48 51 51 50 50 50 50 50 50 50 49 47 45 42 40 39 37 35 33 32 31 31 30 30 30 30 31 32 33 33 33 33 32 31 30 29 29 29 29 29 29 28 28 26 25 24 23 21 20 19 19 18 17 16 15 14 13 12 11
48 40 29 28 35 41 43 44 46 47 48 51 51 50 50 49 49 50 51 50 49 46 43 41 40 38 36 34 33 32 31 31 30 30 31 31 32 33 34 34 33 32 32 31 30 29 29 30 30 29 29 28 27 25 24 23 22 21 20 19 19 18 17 15 14 13 12 12 12
47 35 26 29 37 41 42 45 46 47 48 51 51 50 50 50 50 50 51 51 49 46 44 42 40 39 37 35 33 32 32 31 31 31 32 33 34 34 34 34 33 32 32 31 30 30 30 30 30 29 29 28 26 25 23 22 21 20 19 19 18 17 16 15 14 13 13 12 12
41 30 25 32 38 42 44 46 47 48 49 51 50 50 50 50 50 50 51 50 49 48 45 43 41 39 37 35 34 33 32 32 32 33 34 35 35 35 35 34 33 33 32 31 30 30 30 30 30 29 28 27 26 24 23 22 21 20 19 18 17 17 16 15 14 13 13 13 12
34 27 28 35 40 44 47 48 48 48 49 50 50 50 50 50 50 50 50 50 50 49 46 43 41 39 37 36 35 34 33 34 34 35 36 36 36 36 35 35 34 33 32 31 31 31 30 30 29 28 27 26 25 24 22 21 20 19 18 17 17 16 16 15 15 14 14 13 13
30 27 32 39 43 47 49 49 49 49 49 50 50 49 49 50 49 50 51 51 51 49 46 43 41 39 37 36 35 35 34 35 36 37 37 37 37 37 36 35 34 33 32 32 31 31 30 29 28 27 26 25 23 22 21 20 19 18 17 17 17 16 16 15 15 14 14 13 12
28 29 36 42 46 49 49 49 49 49 49 49 49 49 49 49 49 51 52 52 50 47 45 43 41 39 38 37 36 36 36 36 37 38 38 38 37 37 36 35 34 33 33 32 31 30 29 28 27 26 25 24 22 21 20 19 18 18 17 17 17 16 16 16 15 15 14 13 13
28 33 40 45 48 50 50 49 49 49 49 49 49 49 49 50 51 52 52 51 48 46 44 42 40 39 38 38 37 36 37 37 38 38 38 38 38 37 36 36 35 34 33 32 31 29 28 27 26 25 24 23 21 20 19 19 18 18 17 17 17 16 16 15 15 14 14 13 13
32 39 44 47 49 50 50 49 49 49 49 49 49 49 50 51 53 52 51 48 46 44 43 41 40 39 38 38 38 37 37 38 38 39 39 38 38 37 37 36 35 34 33 31 30 28 27 26 25 24 23 21 21 20 19 19 18 18 17 17 17 16 15 15 14 14 13 12 12
39 44 47 49 50 50 50 49 48 48 48 49 49 50 51 52 51 50 47 46 44 43 43 42 40 38 38 38 38 38 38 38 38 39 39 39 38 38 37 36 35 33 32 30 29 27 26 25 24 23 21 21 20 19 19 19 18 18 17 16 16 15 15 14 14 13 12 11 10
43 46 48 50 50 50 49 48 48 47 48 48 49 50 50 50 48 46 45 45 44 44 44 42 39 38 37 38 38 38 38 38 39 39 39 39 38 37 37 36 34 33 31 30 28 27 25 24 23 22 21 20 20 19 19 18 18 17 16 16 15 14 14 13 13 12 11 10 9
46 48 49 49 49 49 48 48 47 47 47 48 48 49 48 47 45 45 45 45 45 45 43 41 39 38 37 37 37 38 38 38 39 39 39 39 38 37 36 36 34 33 31 29 28 26 25 24 22 21 20 20 19 19 19 18 17 17 16 15 14 14 13 12 12 11 11 10 8
47 48 48 48 48 48 47 47 46 46 46 47 47 46 45 45 45 45 45 46 46 44 43 41 40 39 38 38 37 37 38 39 39 39 39 39 38 37 36 35 34 32 30 29 28 27 25 24 23 21 21 20 19 19 18 17 17 16 15 14 14 13 12 12 11 11 11 10 9
47 48 48 47 47 47 46 46 45 45 45 45 45 44 44 44 45 45 45 45 45 44 42 41 40 39 39 38 38 38 39 39 39 39 39 38 38 37 36 34 33 31 29 28 27 26 25 24 23 22 21 20 19 19 18 17 16 15 15 14 13 13 12 12 12 11 10 10 9
47 47 47 46 46 46 45 45 44 44 44 44 43 43 43 44 45 45 45 44 44 43 43 41 40 39 39 39 39 39 39 39 39 39 38 38 37 36 35 33 31 30 29 27 27 26 25 24 23 22 21 20 19 18 18 17 16 15 14 14 13 13 13 12 12 11 10 9 9
46 45 45 45 45 44 44 43 43 43 44 44 43 43 44 44 45 44 43 43 43 43 42 41 40 39 39 39 40 40 39 39 38 38 38 37 36 35 33 32 30 29 28 27 26 25 24 24 23 22 21 20 19 18 17 17 16 15 15 14 14 13 13 12 12 11 10 9 9
44 44 44 43 43 43 42 42 42 42 43 44 43 43 43 43 43 42 42 43 42 42 40 39 38 38 39 39 39 39 39 38 38 37 37 36 34 33 32 30 29 28 27 26 25 25 24 23 23 21 20 19 18 17 17 17 16 16 15 14 14 13 13 12 12 11 10 9 8
43 42 42 41 41 41 41 41 42 42 43 43 43 43 42 42 41 41 41 42 41 40 38 37 37 37 38 38 38 39 38 38 37 36 35 34 33 32 30 29 28 27 26 26 25 25 24 24 23 21 20 18 17 17 17 17 16 16 15 14 13 13 12 12 11 10 10 9 8
42 41 41 40 40 40 41 42 42 43 43 43 42 41 40 40 39 39 40 40 39 38 37 36 36 36 36 37 38 38 38 37 37 36 34 33 32 31 29 28 27 26 25 25 25 24 24 23 22 21 19 18 17 17 17 17 16 16 15 14 13 12 11 11 10 10 9 9 9
42 41 41 41 41 41 42 43 44 44 43 42 41 40 39 38 38 38 38 38 37 36 35 35 34 35 35 36 37 37 37 37 36 35 34 32 31 29 28 27 26 25 24 24 24 23 23 22 21 20 19 18 18 17 17 17 16 15 14 13 13 12 11 11 10 10 9 9 8
42 42 42 42 42 43 44 44 44 43 42 41 40 38 37 37 37 37 37 36 36 35 34 34 34 35 35 36 36 36 36 35 35 34 32 31 30 28 27 26 25 24 24 23 23 22 21 20 20 19 19 18 18 18 17 17 16 15 14 14 13 13 12 11 10 9 9 9 9
42 42 42 42 42 43 44 43 43 42 41 39 37 36 36 35 36 36 36 35 35 34 33 34 34 35 36 36 36 36 35 34 33 32 31 30 29 27 26 26 25 24 24 23 22 21 20 19 19 18 18 18 18 18 17 17 16 15 15 15 14 13 12 11 10 9 9 9 9
43 42 42 42 41 41 41 41 40 39 37 36 35 34 35 35 36 36 35 35 34 34 33 34 35 35 36 36 36 35 34 33 31 30 29 28 27 27 26 25 25 24 24 23 22 21 20 19 19 18 18 18 17 17 17 17 16 16 16 15 15 13 12 10 9 8 8 8 8
42 41 40 40 39 38 38 37 36 35 34 33 33 34 34 35 35 35 35 34 34 34 34 35 35 36 36 36 35 34 33 32 30 29 28 27 26 25 25 25 24 24 24 23 22 22 21 20 19 18 18 17 17 16 16 16 16 16 16 16 14 13 11 9 8 7 7 7 8
40 39 38 37 36 35 34 33 32 32 32 32 33 33 34 34 34 34 34 33 34 34 34 35 36 36 36 36 35 33 32 30 29 28 27 26 25 25 24 24 24 24 24 23 23 22 21 20 19 18 17 16 16 15 15 15 15 16 16 15 13 11 10 9 8 7 7 7 8
38 37 36 35 35 33 32 31 31 31 31 32 32 33 33 33 33 33 33 33 33 34 35 35 36 36 36 35 34 33 31 29 28 27 26 26 25 25 25 25 25 25 24 24 23 22 21 20 19 18 17 16 16 15 15 14 14 14 14 13 11 10 10 10 8 7 7 7 8
36 36 35 35 34 33 32 31 31 31 31 31 32 32 33 33 33 33 33 33 33 34 35 35 36 36 35 34 33 32 30 29 27 26 26 25 25 25 25 25 25 25 24 23 22 21 20 19 18 18 17 17 16 16 15 15 14 14 13 12 10 10 10 9 8 8 8 8 8
35 35 34 34 33 32 31 31 31 31 31 32 32 32 32 32 32 32 32 33 33 34 34 35 35 35 34 33 32 31 29 28 27 26 26 26 26 26 26 26 25 25 24 23 22 21 20 19 18 18 17 17 16 16 15 15 14 13 12 10 9 9 9 9 9 9 9 8 8
33 33 33 32 32 31 31 30 30 31 31 32 32 32 32 32 32 32 32 32 33 33 34 34 34 34 33 32 31 30 28 28 27 26 26 26 26 26 26 26 25 24 23 22 21 20 19 19 18 17 17 16 16 15 15 14 13 12 11 10 9 9 9 9 9 9 9 9 8
31 31 31 31 31 31 30 30 31 31 32 32 32 32 32 31 31 31 32 32 32 33 33 33 33 33 32 31 30 29 28 27 27 27 27 27 27 26 26 26 25 24 23 22 21 20 19 18 17 17 16 15 14 13 12 11 11 10 10 9 9 10 10 10 10 10 9 9 9
30 31 31 31 31 31 31 31 31 32 32 32 32 31 31 30 30 31 31 32 32 32 33 32 32 31 30 29 29 28 28 27 27 27 27 27 27 26 26 25 24 23 22 21 20 19 18 17 17 16 14 12 11 9 9 9 9 9 10 10 11 11 12 11 11 10 10 9 9
31 32 32 31 31 31 31 31 31 31 31 31 30 30 30 30 30 30 30 31 31 32 32 32 31 30 30 29 28 27 27 27 27 27 27 27 27 26 25 24 24 22 21 20 19 18 17 16 15 13 11 10 9 8 8 8 8 9 10 11 12 12 12 12 11 11 10 10 9
31 31 32 31 31 30 30 30 30 30 29 29 29 29 29 29 29 29 29 29 30 30 30 30 30 30 29 28 28 27 27 27 27 27 27 27 26 25 24 23 22 21 20 19 18 17 16 14 12 11 9 9 8 8 8 8 9 10 11 13 13 13 13 12 12 11 11 10 9
29 30 30 30 30 29 29 28 28 27 27 27 27 27 27 28 28 28 28 28 28 29 29 29 29 29 28 28 28 28 27 27 26 26 26 26 25 24 23 22 21 20 19 18 17 15 13 11 9 9 8 8 8 9 9 8 9 10 12 14 14 14 14 13 12 12 11 10 9
27 27 28 28 28 28 27 26 25 25 25 25 26 26 26 26 26 27 27 27 27 27 28 28 28 28 28 28 28 28 27 27 26 25 25 24 24 23 22 21 20 19 18 16 15 13 11 9 8 7 8 8 9 9 9 9 9 11 13 14 15 15 14 13 13 12 11 10 9
25 25 25 25 25 25 25 24 23 23 23 23 24 25 25 25 26 26 26 26 26 27 27 28 28 28 28 28 28 28 27 26 25 24 24 23 23 22 21 19 18 17 16 14 13 11 10 8 7 7 7 8 9 9 9 9 10 12 13 15 15 15 14 13 12 11 11 10 9
23 23 23 23 23 23 22 22 21 21 22 22 23 24 24 24 25 25 26 26 26 26 27 27 28 28 28 28 28 27 27 26 25 24 23 22 21 20 19 18 17 16 14 13 12 11 10 9 8 8 8 9 9 10 9 9 11 12 14 15 15 14 12 11 11 10 10 10 9
Wind_Direction
189 187 186 186 186 179 172 170 170 170 171 172 173 175 176 178 178 179 180 181 182 182 182 182 183 185 187 187 186 185 185 186 187 189 191 193 194 195 194 192 188 185 182 180 180 180 181 181 180 179 177 176 177 177 177 176 175 176 177 179 179 179 179 179 179 177 177 177 178
189 187 186 187 185 176 170 169 170 170 171 173 174 176 177 178 178 179 180 180 182 182 181 180 182 185 187 186 184 183 184 185 187 189 191 192 193 191 189 186 182 180 178 178 178 179 180 180 180 179 178 178 179 180 180 178 177 178 179 178 177 177 177 177 175 174 174 175 176
190 187 185 186 181 172 168 169 169 170 171 173 175 176 177 178 179 179 179 180 181 181 180 179 182 185 186 184 182 182 183 184 186 188 189 190 188 186 183 180 177 177 176 177 178 179 180 180 181 181 180 180 181 181 181 179 179 179 178 177 177 176 176 175 173 173 173 174 176
186 185 184 185 175 169 168 168 169 170 171 173 175 175 176 177 179 179 180 181 181 180 179 179 182 184 184 182 180 180 181 183 185 186 186 185 182 180 177 176 175 175 176 177 178 180 180 181 182 182 182 182 182 182 181 179 179 179 178 177 177 177 176 175 174 174 175 176 178
181 182 183 180 170 167 167 168 167 169 171 174 174 175 176 178 180 181 182 181 181 180 180 180 182 183 182 180 179 179 180 181 182 182 181 179 177 175 174 173 174 174 176 178 179 181 182 183 183 183 183 184 183 182 180 179 179 179 178 178 179 179 178 177 177 178 179 180 181
178 179 180 173 167 165 165 166 167 168 171 174 175 175 176 178 181 183 183 181 180 180 181 182 182 181 180 178 177 177 178 179 179 178 176 174 173 172 173 173 174 175 176 178 180 182 183 183 183 183 183 184 183 182 180 180 180 180 180 181 181 181 180 180 180 182 183 184 185
179 180 178 169 165 163 163 164 166 168 170 174 175 175 176 178 180 181 181 181 181 181 182 182 182 181 179 176 175 175 176 176 175 174 173 171 171 171 172 173 175 176 177 179 181 183 184 184 183 183 183 182 182 181 181 181 182 183 183 184 184 184 183 182 183 185 186 188 189
181 183 177 166 163 162 163 164 165 168 170 173 174 175 176 177 177 177 178 179 181 182 182 182 181 179 176 173 173 173 173 173 173 172 171 171 171 171 173 174 175 176 178 180 181 183 184 184 183 182 181 180 180 180 180 182 184 185 186 187 187 186 185 184 185 187 189 190 191
184 183 172 163 161 162 163 165 167 168 170 172 173 175 175 175 175 175 175 178 181 182 181 180 179 177 173 171 171 171 171 171 171 171 171 171 171 172 173 175 176 177 178 180 182 184 184 182 181 180 179 179 179 179 181 182 184 186 187 187 187 186 186 186 187 188 190 191 191
185 178 166 161 161 163 165 166 168 169 170 171 173 174 175 174 174 175 177 179 181 180 179 178 177 174 171 170 170 170 171 171 171 171 170 171 172 173 174 175 176 177 179 181 183 183 182 180 179 178 177 177 178 180 181 182 183 184 185 185 185 185 186 186 187 188 188 189 189
180 169 161 160 162 164 166 166 167 168 169 170 172 174 174 175 176 178 179 180 178 177 176 176 174 172 170 170 171 171 171 171 171 170 170 171 172 174 175 176 176 178 179 181 182 181 179 177 176 176 175 177 178 179 180 180 180 180 181 182 183 183 185 186 187 186 186 186 186
170 161 158 160 163 165 166 166 166 167 168 170 172 174 175 176 179 181 181 179 176 174 173 173 172 171 171 171 172 172 171 171 170 170 170 172 173 175 176 176 177 179 180 180 180 178 176 175 174 174 175 176 177 178 177 177 176 176 177 179 180 182 183 184 185 185 184 185 187
161 157 158 161 164 165 166 165 165 167 168 170 173 174 176 179 182 182 180 177 174 172 171 171 171 172 172 172 172 172 172 171 170 170 171 173 175 176 177 177 178 179 179 179 177 176 174 173 173 174 174 175 175 174 173 172 172 173 175 177 179 180 181 182 183 183 184 187 192
156 156 158 162 164 165 165 165 165 167 169 171 173 175 178 180 181 180 177 174 171 169 169 170 172 172 172 173 172 172 171 170 170 171 172 174 176 177 177 178 178 179 179 177 175 173 172 172 172 173 174 174 172 170 169 169 170 171 173 176 177 179 179 180 181 182 185 191 197
154 156 159 162 163 165 165 165 166 167 170 171 173 176 177 177 177 176 173 171 169 169 170 171 171 171 172 173 172 171 169 169 170 172 174 175 176 177 177 178 178 178 177 176 173 172 171 171 172 173 173 171 169 166 166 167 168 170 172 175 177 178 178 179 180 182 187 193 200
154 157 160 162 164 165 165 166 166 168 169 171 173 174 174 173 172 172 170 169 169 170 170 170 170 170 172 172 171 170 169 170 172 174 175 176 177 177 178 178 178 177 176 173 172 171 171 172 173 173 171 169 167 166 166 167 168 170 172 174 176 177 178 179 180 184 189 194 199
155 157 160 162 164 165 166 166 167 168 169 170 170 170 169 168 168 169 170 170 170 170 169 169 170 171 171 171 170 170 170 172 174 175 176 176 177 177 178 178 177 176 174 172 171 171 171 172 173 172 171 169 167 167 167 168 168 170 171 174 175 177 178 180 183 188 193 195 196
155 158 160 162 164 165 166 167 167 168 168 168 168 167 167 167 167 168 170 171 171 170 169 170 171 171 171 170 170 171 172 174 175 175 176 176 177 177 177 177 176 174 173 172 172 172 172 173 173 172 171 170 170 169 169 169 169 170 172 174 175 177 180 183 187 194 198 198 197
156 158 160 162 164 166 167 168 168 168 168 168 167 167 167 167 167 168 169 171 172 171 171 171 171 171 171 171 171 173 174 175 175 175 176 176 177 177 176 175 174 173 172 172 172 173 173 174 174 173 172 172 172 172 172 171 171 171 173 174 176 179 182 186 190 196 201 202 202
157 159 161 163 165 166 167 167 167 167 167 168 168 168 167 167 168 168 169 170 172 172 172 172 172 172 172 173 173 174 175 175 175 175 176 176 176 176 175 174 173 172 172 172 173 173 174 174 174 174 174 174 174 174 174 173 172 172 174 175 178 182 185 188 192 197 201 206 208
158 160 162 164 165 165 166 166 166 166 166 166 166 166 166 166 167 168 170 172 173 173 173 173 173 173 173 174 174 174 174 174 175 175 175 175 175 174 173 173 172 171 171 172 173 174 175 175 175 175 174 175 176 176 175 174 173 173 175 178 182 185 187 189 193 197 202 208 215
159 161 163 164 165 165 164 164 163 163 162 163 163 164 165 165 167 170 172 173 173 173 174 174 175 175 174 174 174 174 174 174 174 175 174 174 173 172 172 171 171 171 171 172 173 174 175 175 174 174 175 175 176 176 175 174 174 175 178 182 186 188 189 191 195 200 206 214 221
158 160 162 163 163 162 161 160 159 159 159 160 161 164 166 167 170 171 172 172 173 173 174 175 175 175 175 174 174 173 173 173 173 173 173 172 171 171 170 170 170 170 171 172 173 174 174 174 173 173 174 175 175 175 175 175 177 178 182 186 188 190 190 194 199 206 213 220 227
156 157 158 159 158 158 157 157 157 157 158 159 162 165 168 169 171 172 172 172 172 174 174 175 175 174 174 174 173 173 173 172 172 171 171 170 170 169 168 168 169 169 170 171 171 172 172 172 172 172 173 174 175 175 176 177 179 182 186 189 190 190 192 197 203 210 217 223 228
153 153 153 153 153 154 154 155 156 157 158 161 164 167 169 170 171 171 171 171 173 174 174 174 174 173 173 173 173 172 172 171 170 170 169 168 168 168 167 167 168 168 168 169 169 170 170 171 171 172 173 175 176 176 177 178 181 184 188 191 192 192 194 199 205 212 218 222 223
150 149 149 149 149 151 152 154 155 157 159 162 165 167 169 170 170 170 171 171 172 174 174 174 173 172 172 172 171 171 171 170 169 168 167 167 167 167 167 167 167 166 166 166 166 167 169 171 173 175 176 177 177 177 178 179 182 187 192 194 194 195 197 202 208 215 219 219 217
146 146 146 147 147 148 150 153 154 157 160 163 165 167 167 168 169 170 171 171 172 173 173 173 172 171 171 170 170 170 169 169 168 167 167 167 166 166 166 166 166 165 165 165 165 166 169 172 175 178 179 179 178 178 179 180 185 191 196 198 198 198 200 207 216 221 220 215 212
144 143 143 144 145 146 148 151 154 157 160 163 165 166 166 167 168 170 171 172 172 172 172 171 171 170 170 169 169 169 168 167 167 167 167 167 166 166 166 165 165 164 164 165 166 168 171 174 178 179 180 180 179 179 181 184 190 195 199 201 201 202 204 210 218 220 214 209 211
142 141 142 143 144 146 149 152 155 158 161 163 164 165 166 167 169 170 172 172 172 172 171 170 170 169 169 168 168 168 167 166 166 166 166 166 166 166 165 165 164 164 165 166 168 171 173 176 178 179 179 180 182 183 186 191 198 203 206 206 206 206 208 210 212 208 203 203 213
140 141 142 145 146 148 151 153 156 159 161 162 164 165 167 168 169 171 171 171 171 171 170 169 169 168 168 167 167 166 166 165 165 165 165 165 166 165 165 165 165 166 167 169 171 173 175 177 178 179 179 182 186 189 192 197 205 211 214 213 213 214 212 207 201 194 193 202 212
141 143 145 146 148 150 151 154 156 159 161 162 164 165 167 168 169 170 170 170 170 169 169 169 169 168 168 167 166 166 165 164 164 164 165 165 165 166 165 166 167 168 170 172 173 174 176 177 178 179 182 186 191 194 198 203 210 216 219 220 222 219 210 197 188 185 192 203 209
142 143 145 146 148 149 151 153 156 158 160 162 163 165 166 167 168 168 168 168 168 168 168 169 168 168 167 166 165 165 164 164 164 164 164 165 166 166 167 168 169 170 172 173 174 175 176 178 180 182 186 191 195 200 204 209 213 216 218 218 219 212 199 187 186 190 197 202 202
141 143 144 146 147 149 151 154 156 157 159 161 162 164 165 165 165 165 165 166 167 167 168 168 168 168 167 166 165 164 163 163 164 164 165 166 167 168 169 170 171 172 173 174 174 175 177 179 182 186 191 196 202 205 208 210 213 213 211 210 207 199 190 187 191 195 198 197 196
141 143 145 147 149 151 152 154 155 157 158 160 161 162 162 162 162 163 164 165 166 167 168 168 168 167 166 165 165 164 164 164 164 165 166 167 169 170 171 172 172 173 173 174 176 177 180 182 187 192 198 203 206 205 204 204 206 206 203 200 195 191 190 192 197 199 198 197 195
142 145 147 150 151 152 153 155 156 157 158 159 159 160 160 161 161 162 164 165 166 167 168 168 168 167 166 165 165 165 165 165 165 166 168 169 171 172 173 173 173 173 174 176 178 180 183 187 193 199 203 204 201 195 192 194 198 199 197 193 189 189 193 199 201 201 199 198 197
144 147 148 149 151 152 154 155 156 157 157 158 158 159 160 160 161 162 163 165 166 166 167 167 167 167 166 165 165 166 166 167 167 169 170 171 173 174 174 174 174 174 176 178 181 183 187 193 198 201 200 196 191 189 190 193 197 197 194 189 187 192 198 203 203 203 202 201 200
145 146 147 148 149 151 152 154 155 155 156 156 157 158 160 161 161 162 163 164 165 165 166 166 166 166 166 166 166 166 167 168 170 170 172 173 174 175 176 176 175 176 178 181 183 187 191 195 196 194 191 190 193 198 201 202 203 199 194 189 190 196 202 205 205 205 205 204 203
144 144 145 145 146 147 149 150 151 151 152 154 156 158 160 161 161 162 162 163 164 164 165 165 166 166 166 166 166 167 168 169 171 172 173 174 175 177 178 178 178 179 181 183 186 189 191 192 190 187 187 192 200 207 211 212 209 203 196 192 195 201 205 207 207 207 207 205 205
142 142 142 142 143 143 144 145 147 148 149 151 154 157 159 160 160 160 161 162 163 164 164 164 165 165 166 167 167 168 169 170 172 174 175 176 177 178 180 181 182 183 184 186 187 188 189 190 191 191 193 198 205 211 215 216 212 206 200 197 200 205 210 210 210 210 209 208 209
140 141 141 141 141 141 142 142 143 145 147 149 152 154 156 157 158 158 159 160 162 163 164 164 165 166 167 168 169 170 171 172 173 176 178 179 180 181 182 184 186 187 188 189 189 189 191 197 202 205 206 208 211 213 214 215 213 208 204 203 204 207 212 215 216 215 214 213 214
140 141 141 141 141 141 141 140 141 143 145 147 149 151 153 154 155 156 158 159 161 162 164 165 166 167 168 170 172 173 173 174 176 178 180 182 183 184 185 187 189 191 193 193 192 193 198 205 212 216 217 216 214 212 212 213 212 209 207 207 208 210 214 220 222 223 222 219 219
Height
1378 1381 1384 1387 1391 1393 1394 1395 1396 1397 1399 1402 1404 1407 1410 1413 1416 1419 1421 1424 1426 1429 1431 1434 1438 1441 1444 1446 1448 1451 1453 1456 1458 1460 1462 1464 1467 1469 1472 1474 1476 1479 1481 1483 1485 1487 1489 1491 1493 1494 1495 1497 1498 1499 1500 1501 1502 1503 1504 1505 1506 1507 1508 1509 1510 1510 1511 1512 1513
1378 1380 1384 1388 1392 1394 1394 1395 1396 1398 1400 1402 1404 1407 1410 1413 1416 1418 1421 1424 1426 1429 1431 1435 1439 1442 1444 1446 1449 1451 1454 1456 1459 1461 1463 1465 1468 1470 1472 1474 1477 1479 1481 1483 1485 1487 1489 1491 1492 1494 1495 1496 1497 1498 1499 1500 1502 1503 1504 1505 1506 1507 1508 1509 1509 1510 1511 1512 1512
1378 1381 1385 1389 1392 1393 1393 1394 1396 1398 1400 1403 1405 1408 1411 1414 1416 1419 1421 1424 1426 1429 1432 1435 1439 1442 1444 1447 1449 1452 1454 1457 1459 1461 1464 1466 1468 1471 1473 1475 1477 1479 1482 1484 1485 1487 1489 1490 1492 1493 1494 1495 1496 1498 1499 1500 1501 1502 1503 1504 1505 1506 1507 1508 1509 1510 1510 1511 1512
1379 1383 1387 1390 1391 1392 1392 1393 1395 1398 1401 1404 1406 1409 1412 1414 1417 1419 1421 1424 1427 1430 1433 1436 1439 1443 1445 1448 1450 1453 1455 1458 1459 1462 1464 1466 1469 1471 1474 1475 1478 1480 1482 1484 1486 1487 1489 1490 1491 1493 1494 1495 1496 1497 1498 1499 1501 1502 1503 1504 1505 1506 1507 1508 1509 1509 1510 1511 1511
1380 1384 1388 1390 1391 1392 1393 1394 1397 1399 1402 1404 1407 1410 1413 1415 1417 1419 1422 1425 1428 1431 1434 1437 1440 1443 1446 1449 1451 1454 1456 1458 1460 1463 1465 1467 1469 1472 1474 1476 1478 1480 1482 1484 1486 1487 1489 1489 1491 1492 1493 1494 1495 1497 1498 1499 1500 1501 1503 1504 1505 1506 1507 1508 1509 1509 1510 1510 1511
1381 1385 1388 1390 1392 1393 1394 1396 1398 1400 1402 1405 1407 1410 1412 1414 1417 1419 1422 1426 1429 1432 1435 1438 1441 1444 1447 1450 1452 1454 1457 1459 1461 1464 1466 1468 1470 1472 1474 1477 1479 1480 1482 1484 1485 1487 1488 1489 1490 1492 1493 1494 1496 1497 1499 1499 1501 1502 1503 1504 1505 1506 1507 1508 1508 1509 1509 1510 1510
1381 1385 1389 1391 1392 1393 1395 1397 1399 1401 1403 1406 1408 1410 1412 1414 1417 1420 1423 1426 1430 1433 1436 1439 1442 1445 1448 1450 1453 1455 1457 1459 1462 1464 1466 1468 1470 1473 1475 1477 1479 1480 1482 1484 1485 1487 1488 1489 1490 1491 1493 1494 1496 1497 1498 1499 1501 1502 1503 1504 1505 1506 1506 1507 1508 1509 1509 1509 1510
1384 1387 1389 1391 1392 1393 1395 1397 1399 1401 1404 1406 1409 1410 1412 1414 1417 1420 1424 1427 1430 1433 1436 1439 1443 1446 1449 1451 1453 1455 1457 1459 1462 1464 1467 1469 1471 1473 1475 1477 1479 1480 1482 1484 1485 1486 1487 1489 1490 1491 1492 1494 1495 1497 1498 1499 1500 1502 1503 1504 1504 1505 1506 1507 1507 1508 1509 1509 1509
1385 1388 1390 1391 1392 1393 1394 1396 1399 1401 1404 1406 1409 1411 1413 1415 1418 1421 1424 1427 1430 1433 1436 1440 1444 1447 1449 1451 1453 1455 1458 1460 1462 1464 1467 1469 1471 1473 1475 1477 1479 1480 1482 1484 1485 1486 1487 1488 1490 1491 1493 1494 1495 1497 1498 1499 1500 1501 1503 1504 1504 1505 1506 1506 1507 1507 1508 1509 1509
1386 1388 1390 1391 1392 1393 1394 1397 1399 1402 1404 1407 1409 1411 1414 1416 1419 1422 1425 1427 1430 1433 1437 1441 1445 1448 1450 1452 1454 1456 1458 1460 1463 1465 1467 1469 1471 1473 1475 1477 1479 1480 1482 1483 1484 1486 1487 1489 1490 1492 1493 1494 1496 1497 1498 1499 1500 1501 1502 1503 1504 1505 1505 1506 1506 1507 1508 1508 1509
1386 1388 1389 1389 1390 1392 1394 1397 1400 1403 1405 1407 1409 1412 1414 1417 1420 1423 1425 1427 1430 1434 1438 1442 1446 1448 1450 1452 1454 1456 1459 1461 1463 1465 1467 1469 1471 1473 1475 1476 1478 1480 1481 1483 1484 1486 1487 1489 1490 1492 1493 1495 1496 1497 1498 1499 1500 1501 1502 1503 1504 1504 1505 1506 1506 1507 1507 1508 1509
1387 1388 1388 1389 1390 1392 1395 1398 1401 1403 1405 1408 1410 1412 1415 1418 1421 1423 1425 1428 1431 1435 1439 1444 1447 1449 1451 1453 1455 1457 1459 1461 1463 1465 1468 1469 1471 1473 1475 1476 1478 1480 1481 1483 1484 1486 1488 1489 1491 1492 1494 1495 1496 1497 1498 1499 1500 1501 1502 1503 1504 1504 1505 1505 1506 1507 1507 1508 1508
1386 1387 1387 1389 1391 1393 1396 1398 1401 1404 1406 1408 1410 1413 1416 1419 1421 1423 1426 1429 1433 1437 1441 1444 1448 1450 1452 1453 1455 1457 1459 1462 1464 1466 1468 1469 1471 1473 1475 1477 1478 1480 1482 1483 1485 1486 1488 1490 1491 1493 1494 1495 1496 1497 1498 1499 1500 1501 1502 1502 1503 1504 1504 1505 1506 1506 1507 1508 1508
1385 1386 1387 1389 1392 1394 1396 1399 1402 1404 1406 1409 1411 1414 1416 1419 1422 1425 1428 1431 1435 1439 1442 1445 1449 1451 1453 1454 1456 1458 1460 1462 1464 1466 1468 1469 1471 1473 1475 1477 1479 1480 1482 1484 1485 1487 1489 1490 1492 1493 1494 1495 1496 1497 1498 1499 1500 1501 1502 1502 1503 1504 1504 1505 1506 1506 1507 1508 1508
1385 1387 1388 1390 1393 1395 1397 1400 1402 1405 1407 1409 1412 1414 1417 1420 1423 1427 1430 1433 1436 1439 1443 1446 1449 1451 1453 1455 1457 1459 1460 1463 1464 1466 1468 1469 1471 1473 1475 1477 1479 1481 1482 1484 1486 1488 1489 1491 1492 1494 1495 1496 1497 1497 1498 1499 1500 1501 1502 1503 1503 1504 1504 1505 1506 1506 1507 1507 1508
1386 1388 1389 1392 1394 1396 1399 1401 1403 1406 1408 1410 1413 1415 1418 1422 1425 1428 1431 1434 1437 1441 1444 1447 1449 1452 1454 1456 1458 1459 1461 1463 1464 1466 1468 1469 1472 1474 1476 1478 1479 1481 1483 1484 1486 1488 1489 1491 1493 1494 1495 1496 1497 1498 1498 1499 1500 1501 1501 1502 1503 1504 1504 1505 1506 1506 1507 1507 1508
1387 1389 1391 1393 1395 1397 1400 1402 1404 1407 1409 1412 1414 1417 1420 1423 1426 1429 1432 1435 1438 1441 1444 1447 1449 1452 1454 1456 1458 1460 1462 1463 1464 1466 1468 1470 1472 1474 1476 1478 1479 1481 1483 1485 1486 1488 1489 1491 1493 1494 1495 1496 1497 1498 1498 1499 1500 1500 1501 1502 1503 1504 1504 1505 1505 1506 1506 1507 1507
1388 1390 1392 1394 1396 1399 1401 1403 1406 1408 1411 1413 1416 1419 1421 1424 1427 1430 1433 1437 1439 1442 1444 1447 1449 1452 1454 1456 1458 1460 1461 1463 1464 1467 1469 1471 1473 1474 1476 1478 1480 1482 1484 1485 1487 1488 1489 1491 1492 1494 1495 1496 1497 1498 1498 1499 1500 1500 1501 1502 1503 1503 1504 1505 1505 1506 1506 1507 1507
1389 1392 1394 1396 1398 1400 1402 1404 1407 1409 1412 1414 1417 1420 1423 1425 1428 1431 1435 1438 1440 1442 1444 1447 1449 1452 1454 1455 1457 1459 1461 1463 1465 1467 1469 1471 1473 1475 1477 1479 1480 1482 1484 1485 1487 1489 1490 1491 1493 1494 1495 1496 1497 1498 1498 1499 1500 1500 1501 1502 1503 1503 1504 1504 1505 1505 1506 1506 1507
1391 1393 1395 1398 1399 1402 1404 1406 1408 1411 1413 1416 1419 1421 1424 1427 1429 1432 1435 1438 1441 1443 1445 1447 1449 1452 1454 1455 1457 1459 1462 1464 1466 1468 1470 1472 1474 1475 1477 1479 1481 1483 1484 1486 1488 1489 1490 1492 1493 1494 1495 1496 1497 1498 1498 1499 1499 1500 1501 1502 1502 1503 1504 1504 1505 1505 1506 1506 1507
1393 1395 1397 1399 1401 1403 1405 1407 1410 1412 1415 1417 1420 1423 1425 1428 1431 1433 1436 1438 1441 1443 1446 1448 1449 1452 1454 1456 1458 1460 1462 1465 1467 1469 1470 1472 1474 1476 1478 1479 1481 1483 1484 1486 1488 1489 1490 1492 1493 1494 1495 1496 1497 1498 1498 1499 1499 1500 1501 1502 1502 1503 1503 1504 1504 1505 1506 1506 1507
1395 1397 1399 1401 1403 1405 1407 1409 1411 1414 1416 1419 1421 1424 1427 1429 1432 1434 1436 1439 1441 1444 1446 1449 1450 1452 1454 1456 1459 1461 1463 1465 1467 1469 1471 1473 1475 1477 1479 1480 1482 1483 1485 1486 1488 1489 1490 1492 1493 1494 1495 1496 1497 1498 1498 1499 1499 1500 1501 1501 1502 1503 1503 1504 1504 1505 1506 1506 1507
1396 1399 1401 1403 1404 1406 1409 1411 1413 1415 1418 1420 1423 1425 1428 1430 1433 1435 1437 1440 1443 1445 1447 1449 1452 1454 1455 1458 1459 1462 1464 1466 1468 1470 1472 1474 1475 1477 1479 1481 1482 1484 1485 1486 1488 1489 1490 1492 1493 1494 1495 1496 1497 1497 1498 1499 1499 1500 1500 1501 1502 1502 1503 1504 1504 1505 1505 1506 1506
1398 1400 1402 1404 1406 1408 1410 1412 1414 1416 1419 1421 1424 1426 1428 1431 1434 1436 1439 1441 1444 1446 1448 1450 1453 1455 1457 1459 1461 1463 1464 1466 1468 1470 1472 1474 1476 1478 1479 1481 1483 1484 1486 1487 1488 1489 1491 1492 1493 1494 1495 1496 1496 1497 1498 1499 1499 1500 1500 1501 1502 1502 1503 1504 1504 1505 1505 1506 1506
1399 1402 1404 1406 1408 1410 1411 1413 1415 1417 1419 1422 1425 1427 1430 1433 1435 1438 1440 1443 1445 1447 1449 1451 1453 1455 1458 1460 1462 1464 1465 1467 1469 1471 1473 1474 1476 1478 1480 1481 1483 1484 1486 1487 1489 1490 1491 1493 1494 1494 1495 1496 1496 1497 1498 1498 1499 1499 1500 1501 1502 1502 1503 1504 1504 1504 1505 1505 1506
1401 1403 1405 1407 1409 1411 1413 1414 1416 1419 1421 1424 1427 1429 1432 1434 1437 1439 1441 1444 1446 1448 1450 1452 1454 1456 1458 1460 1462 1464 1466 1468 1470 1472 1474 1475 1477 1479 1480 1482 1483 1484 1486 1488 1489 1490 1492 1493 1494 1494 1495 1495 1496 1497 1497 1498 1499 1499 1500 1501 1501 1502 1503 1503 1504 1504 1504 1505 1505
1403 1405 1407 1409 1411 1413 1414 1416 1419 1421 1424 1426 1429 1432 1434 1436 1438 1440 1442 1444 1447 1449 1451 1453 1455 1457 1459 1461 1463 1465 1467 1469 1471 1473 1475 1476 1478 1479 1481 1482 1483 1485 1486 1488 1489 1490 1492 1493 1494 1494 1495 1496 1496 1497 1497 1498 1498 1499 1500 1500 1501 1502 1503 1503 1504 1504 1504 1504 1504
1405 1407 1409 1411 1413 1414 1416 1419 1421 1424 1426 1429 1431 1433 1435 1437 1439 1441 1443 1445 1447 1449 1451 1454 1455 1458 1460 1462 1464 1466 1468 1470 1472 1474 1475 1477 1479 1480 1481 1482 1484 1485 1486 1488 1489 1490 1491 1492 1493 1494 1495 1495 1496 1497 1497 1498 1498 1499 1500 1500 1501 1502 1502 1503 1504 1504 1504 1504 1504
1407 1409 1410 1412 1414 1417 1419 1421 1424 1426 1429 1431 1433 1434 1436 1438 1440 1442 1444 1446 1448 1450 1452 1454 1456 1458 1460 1463 1465 1467 1469 1471 1473 1474 1476 1477 1479 1480 1481 1483 1484 1485 1486 1488 1489 1490 1491 1492 1493 1494 1495 1495 1496 1496 1497 1498 1499 1499 1500 1500 1501 1502 1502 1503 1503 1504 1504 1504 1504
1408 1410 1412 1414 1417 1419 1422 1424 1426 1429 1430 1432 1434 1436 1438 1440 1442 1444 1445 1447 1449 1451 1453 1455 1457 1459 1461 1463 1465 1468 1469 1471 1473 1475 1476 1478 1479 1480 1481 1483 1484 1485 1486 1488 1489 1490 1491 1492 1493 1494 1494 1495 1496 1496 1497 1498 1498 1499 1500 1500 1501 1501 1502 1502 1503 1503 1503 1504 1504
1410 1412 1414 1417 1419 1422 1424 1426 1428 1430 1432 1434 1436 1437 1439 1441 1443 1445 1447 1449 1450 1452 1454 1456 1458 1460 1462 1464 1466 1468 1470 1472 1474 1475 1476 1478 1479 1480 1481 1483 1484 1485 1486 1487 1489 1489 1491 1492 1493 1494 1494 1495 1495 1496 1497 1498 1498 1499 1499 1500 1501 1501 1501 1502 1502 1502 1503 1503 1503
1413 1415 1417 1419 1422 1424 1426 1428 1430 1432 1434 1435 1437 1439 1440 1442 1444 1446 1448 1450 1452 1454 1456 1458 1459 1461 1463 1465 1467 1469 1471 1472 1474 1475 1477 1478 1479 1480 1481 1483 1484 1485 1486 1487 1489 1489 1491 1492 1493 1494 1494 1495 1496 1496 1497 1497 1498 1499 1499 1500 1500 1501 1501 1501 1502 1502 1503 1503 1503
1415 1417 1419 1422 1424 1426 1428 1430 1432 1433 1435 1437 1438 1440 1442 1443 1445 1447 1449 1451 1453 1455 1457 1459 1461 1463 1464 1466 1468 1470 1471 1473 1474 1475 1477 1478 1479 1480 1482 1483 1484 1485 1486 1488 1489 1490 1491 1492 1493 1494 1494 1495 1496 1496 1497 1497 1498 1498 1499 1499 1500 1500 1501 1501 1501 1502 1502 1503 1503
1418 1420 1422 1424 1426 1428 1429 1431 1433 1434 1436 1438 1439 1441 1443 1444 1446 1448 1450 1452 1454 1456 1458 1460 1462 1464 1466 1467 1469 1470 1472 1473 1474 1476 1477 1478 1479 1480 1482 1483 1484 1485 1486 1488 1489 1490 1491 1492 1493 1494 1494 1495 1495 1496 1496 1497 1497 1498 1498 1499 1499 1500 1500 1501 1501 1501 1502 1502 1502
1420 1422 1424 1426 1428 1429 1431 1433 1434 1435 1437 1439 1440 1442 1444 1446 1447 1449 1451 1453 1455 1457 1459 1461 1463 1465 1467 1468 1470 1471 1472 1474 1475 1476 1477 1479 1479 1481 1482 1483 1484 1485 1487 1488 1489 1490 1491 1492 1493 1494 1494 1494 1495 1495 1496 1496 1497 1497 1498 1499 1499 1500 1500 1500 1500 1501 1501 1502 1502
1423 1424 1426 1427 1429 1431 1432 1434 1435 1437 1438 1440 1441 1443 1445 1447 1449 1450 1452 1454 1456 1458 1460 1462 1464 1465 1467 1469 1470 1472 1473 1474 1475 1476 1477 1479 1480 1481 1482 1483 1484 1486 1487 1488 1489 1490 1491 1492 1493 1493 1494 1494 1494 1495 1495 1496 1497 1497 1498 1498 1499 1499 1499 1500 1500 1501 1501 1501 1501
1425 1426 1427 1429 1430 1432 1434 1435 1436 1438 1439 1441 1443 1444 1446 1448 1450 1452 1454 1456 1457 1459 1461 1463 1464 1466 1468 1469 1470 1472 1473 1474 1476 1477 1478 1479 1480 1481 1483 1484 1485 1486 1487 1488 1489 1490 1491 1492 1492 1493 1493 1494 1494 1495 1495 1496 1497 1497 1498 1498 1499 1499 1499 1499 1500 1500 1501 1501 1501
1427 1428 1429 1430 1432 1433 1435 1436 1438 1439 1441 1442 1444 1446 1448 1450 1452 1454 1455 1457 1459 1460 1462 1464 1465 1467 1468 1469 1471 1472 1474 1475 1476 1477 1478 1479 1480 1482 1483 1484 1485 1486 1487 1488 1489 1490 1491 1491 1492 1493 1493 1493 1494 1494 1495 1496 1496 1497 1497 1498 1498 1498 1499 1499 1500 1500 1500 1501 1501
1429 1430 1431 1432 1433 1435 1436 1438 1439 1441 1442 1444 1446 1448 1449 1451 1453 1454 1456 1458 1460 1461 1463 1464 1466 1467 1469 1470 1471 1472 1474 1475 1476 1478 1479 1479 1481 1482 1483 1484 1485 1486 1487 1488 1489 1490 1490 1491 1492 1492 1493 1493 1494 1494 1495 1495 1496 1496 1497 1497 1497 1498 1498 1499 1499 1500 1500 1500 1501
1431 1432 1434 1434 1435 1437 1438 1439 1441 1443 1444 1446 1447 1449 1450 1452 1454 1455 1457 1459 1460 1462 1464 1465 1466 1468 1469 1470 1471 1473 1474 1475 1476 1477 1479 1479 1481 1482 1483 1484 1485 1486 1487 1488 1489 1489 1490 1491 1491 1492 1492 1493 1494 1494 1494 1495 1495 1496 1496 1497 1497 1498 1498 1499 1499 1500 1500 1500 1500
1433 1434 1435 1437 1438 1439 1440 1441 1443 1444 1446 1447 1449 1450 1451 1453 1454 1456 1458 1459 1461 1462 1464 1465 1467 1468 1469 1470 1472 1473 1474 1475 1476 1477 1478 1479 1481 1482 1483 1484 1485 1486 1487 1488 1488 1489 1490 1491 1491 1492 1492 1493 1493 1494 1494 1495 1495 1496 1496 1496 1497 1498 1498 1499 1499 1499 1500 1500 1500